Waarnemingen

Advertentie
Mijn weer
Decimomannu, Italië (16546): temperatuur & dauwpunt: 17.10.2018 22:00:00 - 23.10.2018 22:00:00 (CEST)Decimomannu, Italië (16546): windsnelheid: 17.10.2018 22:00:00 - 23.10.2018 22:00:00 (CEST)Decimomannu, Italië (16546): windrichting: 17.10.2018 22:00:00 - 23.10.2018 22:00:00 (CEST)Decimomannu, Italië (16546): luchtdruk: 17.10.2018 22:00:00 - 23.10.2018 22:00:00 (CEST)Decimomannu, Italië (16546): zicht: 17.10.2018 22:00:00 - 23.10.2018 22:00:00 (CEST)
Datum & Tijd tt [°C] td [°C] ff [km/u] ff [kn] dd ppp [hPa] vv [km]
23.10.2018 22:00:00 15,0 15,0 5 3 OZO - 10
23.10.2018 21:00:00 17,0 15,0 5 3 WNW - 10
23.10.2018 20:00:00 17,6 15,9 13 7 WNW 1018,9 15
23.10.2018 19:00:00 19,0 16,0 9 5 WNW - 10
23.10.2018 18:00:00 20,0 15,0 13 7 WNW - 10
23.10.2018 17:00:00 21,4 14,8 16 9 NW 1018,0 20
23.10.2018 16:00:00 22,0 15,0 18 10 WNW - 10
23.10.2018 15:00:00 22,0 14,0 11 6 WNW - 10
23.10.2018 14:00:00 20,8 12,0 11 6 NW 1018,8 20
23.10.2018 13:00:00 20,0 13,0 11 6 NNW - 10
23.10.2018 12:00:00 18,0 13,0 13 7 NNW - 10
23.10.2018 11:00:00 17,2 8,1 16 9 NW 1019,2 20
23.10.2018 10:00:00 16,0 13,0 15 8 NW - 10
23.10.2018 09:00:00 12,0 11,0 4 2 N - 10
23.10.2018 08:00:00 11,4 10,6 5 3 N 1018,1 12
23.10.2018 07:00:00 11,0 11,0 11 6 N - 10
23.10.2018 06:00:00 13,0 13,0 13 7 N - 10
23.10.2018 05:00:00 14,0 12,4 11 6 N 1017,0 12
23.10.2018 04:00:00 15,0 12,0 21 11 NW - 10
23.10.2018 03:00:00 15,0 12,0 18 10 NW - 10
23.10.2018 02:00:00 15,0 12,0 16 9 NW 1017,0 12
23.10.2018 01:00:00 14,0 12,0 16 9 NW - 10
23.10.2018 00:00:00 14,0 12,0 13 7 NW - 10
22.10.2018 23:00:00 14,8 11,8 13 7 W 1017,3 12
22.10.2018 22:00:00 15,0 11,0 15 8 WNW - 10
22.10.2018 21:00:00 15,0 11,0 16 9 NW - 10
22.10.2018 20:00:00 16,0 11,0 15 8 NNW 1015,3 20
22.10.2018 19:00:00 17,0 10,0 18 10 NNW - 10
22.10.2018 18:00:00 19,0 10,0 21 11 NNW - 10
22.10.2018 17:00:00 20,0 8,4 21 11 N 1013,3 20
22.10.2018 16:00:00 21,0 10,0 26 14 NW - 10
22.10.2018 15:00:00 20,0 11,0 24 13 NW - 10
22.10.2018 14:00:00 20,0 10,4 18 10 NNW 1014,0 10
22.10.2018 13:00:00 18,0 12,0 15 8 NW - 10
22.10.2018 12:00:00 17,0 13,0 18 10 NW - 10
22.10.2018 11:00:00 16,6 13,1 16 9 NNW 1014,9 10
22.10.2018 10:00:00 17,0 15,0 9 5 NNW - 9
22.10.2018 09:00:00 16,0 14,0 8 4 NNW - 7
22.10.2018 08:00:00 15,6 14,0 9 5 WNW 1013,8 7
22.10.2018 07:00:00 16,0 15,0 4 2 WNW - 9
22.10.2018 06:00:00 16,0 15,0 4 2 N - 6
22.10.2018 05:00:00 16,8 15,2 5 3 N 1014,5 8
22.10.2018 04:00:00 17,0 16,0 8 4 NNW - 8
22.10.2018 03:00:00 17,0 16,0 5 3 NW - 10
22.10.2018 02:00:00 17,6 15,8 9 5 WNW 1015,1 10
22.10.2018 01:00:00 18,0 16,0 8 4 WNW - 10
22.10.2018 00:00:00 18,0 16,0 11 6 N - 10
21.10.2018 23:00:00 17,8 16,3 13 7 N 1015,1 12
21.10.2018 22:00:00 18,0 17,0 8 4 NNW - 10
21.10.2018 21:00:00 19,0 17,0 15 8 NNW - 10
21.10.2018 20:00:00 19,2 18,4 9 5 N 1015,0 30
21.10.2018 19:00:00 21,0 20,0 16 9 NNW - 10
21.10.2018 18:00:00 22,0 21,0 22 12 NNW - 10
21.10.2018 17:00:00 23,4 20,5 26 14 NNW 1015,3 30
21.10.2018 16:00:00 24,0 21,0 18 10 NNW - 10
21.10.2018 15:00:00 25,0 21,0 9 5 WNW - 10
21.10.2018 14:00:00 24,6 19,7 8 4 WNW 1016,8 30
21.10.2018 13:00:00 24,0 20,0 8 4 WNW - 10
21.10.2018 12:00:00 22,0 20,0 9 5 NNW - 10
21.10.2018 11:00:00 20,0 18,3 8 4 WNW 1018,9 8
21.10.2018 10:00:00 16,0 14,0 4 2 W - 7
21.10.2018 09:00:00 15,0 13,0 5 3 WNW - 0,8
21.10.2018 08:00:00 15,2 13,6 5 3 NNW 1019,0 0,2
21.10.2018 07:00:00 15,0 13,0 2 1 WNW - 0,2
21.10.2018 06:00:00 15,0 13,0 4 2 WNW - 0,4
21.10.2018 05:00:00 15,6 14,0 8 4 N 1019,6 0,8
21.10.2018 04:00:00 16,0 14,0 5 3 N - 0,8
21.10.2018 03:00:00 16,0 15,0 2 1 NW - 0,8
21.10.2018 02:00:00 16,4 15,1 4 2 ZZO 1020,1 3,0
21.10.2018 01:00:00 17,0 16,0 2 1 ONO - 8
21.10.2018 00:00:00 18,0 16,0 4 2 NW - 10
20.10.2018 23:00:00 18,4 17,1 4 2 O 1020,5 12
20.10.2018 22:00:00 19,0 18,0 8 4 Z - 10
20.10.2018 21:00:00 19,0 18,0 8 4 ZZO - 10
20.10.2018 20:00:00 20,4 19,6 8 4 ZO 1019,4 12
20.10.2018 19:00:00 22,0 21,0 9 5 ZZO - 10
20.10.2018 18:00:00 24,0 22,0 9 5 ZZO - 10
20.10.2018 17:00:00 25,4 19,8 9 5 ZZO 1019,3 12
20.10.2018 16:00:00 26,0 20,0 8 4 Z - 10
20.10.2018 15:00:00 26,0 20,0 8 4 ZW - 10
20.10.2018 14:00:00 25,4 19,3 4 2 WNW 1019,9 15
20.10.2018 13:00:00 25,0 19,0 4 2 - - 10
20.10.2018 12:00:00 23,0 20,0 4 2 WNW - 10
20.10.2018 11:00:00 20,6 18,5 4 2 N 1020,2 12
20.10.2018 10:00:00 17,0 16,0 4 2 WNW - 10
20.10.2018 09:00:00 16,0 14,0 4 2 NNO - 10
20.10.2018 08:00:00 15,0 13,2 4 2 N 1018,9 15
20.10.2018 07:00:00 15,0 13,0 5 3 NNW - 10
20.10.2018 06:00:00 16,0 14,0 5 3 NNW - 10
20.10.2018 05:00:00 15,8 14,2 5 3 NNW 1018,1 12
20.10.2018 04:00:00 16,0 14,0 5 3 NNW - 10
20.10.2018 03:00:00 16,0 15,0 4 2 NNW - 10
20.10.2018 02:00:00 16,8 14,8 2 1 NW 1017,9 12
20.10.2018 01:00:00 17,0 16,0 4 2 N - 10
20.10.2018 00:00:00 18,0 17,0 11 6 N - 10
19.10.2018 23:00:00 18,4 16,7 9 5 NNW 1017,4 12
19.10.2018 22:00:00 18,0 17,0 9 5 WNW - 10
19.10.2018 21:00:00 20,0 18,0 8 4 NNO - 10
19.10.2018 20:00:00 20,2 19,4 4 2 O 1016,0 12
19.10.2018 19:00:00 22,0 20,0 5 3 ZO - 10
19.10.2018 18:00:00 24,0 20,0 11 6 ZO - 10
19.10.2018 17:00:00 26,0 19,6 11 6 Z 1014,0 20
19.10.2018 16:00:00 26,0 20,0 15 8 ZZO - 10
19.10.2018 15:00:00 26,0 19,0 15 8 ZO - 10
19.10.2018 14:00:00 26,0 19,6 9 5 ZO 1013,7 20
19.10.2018 13:00:00 25,0 19,0 8 4 ZO - 10
19.10.2018 12:00:00 24,0 20,0 5 3 ONO - 10
19.10.2018 11:00:00 22,4 19,8 4 2 ZZO 1013,8 16
19.10.2018 10:00:00 20,0 18,0 8 4 N - 10
19.10.2018 09:00:00 17,0 15,0 5 3 NNW - 10
19.10.2018 08:00:00 15,2 13,4 4 2 O 1011,2 10
19.10.2018 07:00:00 16,0 15,0 4 2 N - 10
19.10.2018 06:00:00 17,0 15,0 11 6 N - 10
19.10.2018 05:00:00 16,8 15,2 13 7 NNW 1009,9 15
19.10.2018 04:00:00 17,0 15,0 5 3 NW - 10
19.10.2018 03:00:00 17,0 15,0 4 2 WNW - 10
19.10.2018 02:00:00 17,0 15,7 8 4 WNW 1010,1 15
19.10.2018 01:00:00 18,0 16,0 5 3 NNW - 10
19.10.2018 00:00:00 19,0 17,0 4 2 WNW - 10
18.10.2018 23:00:00 19,0 17,5 13 7 OZO 1009,8 15
18.10.2018 22:00:00 17,0 16,0 13 7 ONO - 10
18.10.2018 21:00:00 18,0 17,0 4 2 W - 10
18.10.2018 20:00:00 19,2 17,4 15 8 NNO 1008,2 20
18.10.2018 19:00:00 20,0 17,0 9 5 ONO - 10
18.10.2018 18:00:00 22,0 17,0 4 2 NW - 10
18.10.2018 17:00:00 22,6 16,9 18 10 O 1006,2 30
18.10.2018 16:00:00 23,0 19,0 21 11 ZO - 10
18.10.2018 15:00:00 24,0 20,0 8 4 ONO - 10
18.10.2018 14:00:00 24,0 19,9 15 8 ZZO 1006,7 25
18.10.2018 13:00:00 21,0 19,0 22 12 ONO - 10
18.10.2018 12:00:00 20,0 18,0 11 6 O - 10
18.10.2018 11:00:00 18,6 16,6 8 4 O 1007,4 16
18.10.2018 10:00:00 18,0 16,0 2 1 ONO - 10
18.10.2018 09:00:00 18,0 16,0 8 4 NNO - 10
18.10.2018 08:00:00 17,2 15,4 13 7 NO 1007,0 5
18.10.2018 07:00:00 17,0 15,0 13 7 ZO - 4,0
18.10.2018 06:00:00 16,0 14,0 5 3 N - 10
18.10.2018 05:00:00 16,0 14,0 2 1 ZZW 1007,2 10
18.10.2018 04:00:00 16,0 14,0 5 3 OZO - 10
18.10.2018 03:00:00 17,0 15,0 9 5 WNW - 10
18.10.2018 02:00:00 17,0 15,2 8 4 NNW 1009,2 15
18.10.2018 01:00:00 17,0 15,0 8 4 WNW - 10
18.10.2018 00:00:00 17,0 15,0 8 4 N - 10
17.10.2018 23:00:00 17,0 15,0 5 3 NNW 1010,8 10
17.10.2018 22:00:00 17,0 15,0 5 3 WNW - 10

tt = temperatuur
td = dauwpunt
ff = windsnelheid
dd = windrichting
ppp = luchtdruk
vv = zicht

Weerstations in de omgeving